Change the Weather History Date:

Monday, June 17, 2013

  Actual Average Record
Temperature  
Mean Temperature 79 °F -  
Max Temperature 87 °F 86 °F 96 °F (1998)
Min Temperature 71 °F 68 °F 62 °F (2002)
Cooling Degree Days 14    
Growing Degree Days 29 (Base 50)    
Moisture  
Dew Point 70 °F    
Average Humidity 76    
Maximum Humidity 88    
Minimum Humidity 62    
Precipitation  
Precipitation 0.29 in - - ()
Sea Level Pressure  
Sea Level Pressure 29.92 in    
Wind  
Wind Speed 7 mph (SSW)    
Max Wind Speed 15 mph    
Max Gust Speed -    
Visibility 10 miles    
Events Thunderstorm    
Averages and records for this station are not official NWS values.
T = Trace of Precipitation, MM = Missing Value Source: NWS Daily Summary

Daily Weather History Graph

Daily Weather History Graph

Search for Another Location

Airport or City:

Trip Planner

Search our weather history database for the weather conditions in past years. The results will help you decide how hot, cold, wet, or windy it might be!

Date:

Astronomy

Jun. 17, 2013 Rise Set
Actual Time 5:53 AM CDT 8:21 PM CDT
Civil Twilight 5:23 AM CDT 8:51 PM CDT
Nautical Twilight 4:47 AM CDT 9:27 PM CDT
Astronomical Twilight 4:07 AM CDT 10:07 PM CDT
Moon 2:12 PM CDT (6/17) 1:15 AM CDT (6/17)
Length of Visible Light 15h 27m
Length of Day
14h 28m
First Quarter, 60% of the Moon is Illuminated
Jun 17
First Quarter
Jun 23
Full
Jun 29
Last Quarter
Jul 8
New
Jul 15
First Quarter

Hourly Weather History & Observations

Time (CDT) Temp. Heat Index Dew Point Humidity Pressure Visibility Wind Dir Wind Speed Gust Speed Precip Events Conditions
12:15 AM 78.8 °F - 71.6 °F 78% 29.99 in 10.0 mi SW 4.6 mph - N/A   Clear
12:35 AM 78.8 °F - 71.6 °F 78% 29.98 in 10.0 mi SSW 5.8 mph - N/A   Clear
12:55 AM 78.8 °F - 71.6 °F 78% 29.97 in 10.0 mi SSE 4.6 mph - N/A   Clear
1:15 AM 78.8 °F - 71.6 °F 78% 29.97 in 10.0 mi South 5.8 mph - N/A   Clear
1:35 AM 78.8 °F - 71.6 °F 78% 29.98 in 10.0 mi SSW 6.9 mph - N/A   Clear
1:55 AM 78.8 °F - 71.6 °F 78% 29.98 in 10.0 mi SW 9.2 mph - N/A   Mostly Cloudy
2:15 AM 78.8 °F - 71.6 °F 78% 29.97 in 10.0 mi SW 4.6 mph - N/A   Overcast
2:35 AM 77.0 °F - 71.6 °F 83% 29.97 in 8.0 mi SW 6.9 mph - N/A   Scattered Clouds
2:55 AM 77.0 °F - 71.6 °F 83% 29.96 in 8.0 mi SSW 6.9 mph - N/A   Clear
3:15 AM 77.0 °F - 71.6 °F 83% 29.96 in 9.0 mi SSW 8.1 mph - N/A   Scattered Clouds
3:35 AM 75.2 °F - 69.8 °F 83% 29.97 in 10.0 mi West 10.4 mph - N/A Thunderstorm Scattered Clouds
3:55 AM 75.2 °F - 66.2 °F 73% 29.96 in 10.0 mi WSW 15.0 mph - 0.06 in Thunderstorm Thunderstorm
4:15 AM 71.6 °F - 62.6 °F 73% 29.94 in 10.0 mi SW 8.1 mph - 0.11 in   Mostly Cloudy
4:35 AM 71.6 °F - 64.4 °F 78% 29.94 in 10.0 mi WSW 3.5 mph - 0.12 in   Overcast
4:55 AM 73.4 °F - 64.4 °F 73% 29.92 in 10.0 mi SSE 5.8 mph - 0.15 in   Overcast
5:15 AM 71.6 °F - 66.2 °F 83% 29.92 in 10.0 mi ESE 6.9 mph - 0.01 in   Overcast
5:35 AM 73.4 °F - 66.2 °F 78% 29.94 in 10.0 mi South 6.9 mph - 0.01 in   Mostly Cloudy
5:55 AM 73.4 °F - 66.2 °F 78% 29.95 in 10.0 mi SW 5.8 mph - 0.01 in   Mostly Cloudy
6:15 AM 73.4 °F - 68.0 °F 83% 29.95 in 8.0 mi South 9.2 mph - N/A   Mostly Cloudy
6:35 AM 73.4 °F - 69.8 °F 88% 29.95 in 8.0 mi SSW 4.6 mph - N/A   Mostly Cloudy
6:55 AM 73.4 °F - 69.8 °F 88% 29.94 in 8.0 mi Calm Calm - N/A   Overcast
7:16 AM 75.2 °F - 69.8 °F 83% 29.94 in 7.0 mi South 3.5 mph - N/A   Partly Cloudy
7:35 AM 75.2 °F - 69.8 °F 83% 29.93 in 9.0 mi South 9.2 mph - N/A   Clear
7:55 AM 75.2 °F - 69.8 °F 83% 29.94 in 10.0 mi SW 8.1 mph - N/A   Clear
8:15 AM 78.8 °F - 71.6 °F 78% 29.94 in 10.0 mi SSW 6.9 mph - N/A   Clear
8:35 AM 78.8 °F - 71.6 °F 78% 29.94 in 10.0 mi SSW 4.6 mph - N/A   Clear
8:55 AM 80.6 °F 84.6 °F 71.6 °F 74% 29.95 in 10.0 mi South 6.9 mph - N/A   Clear
9:15 AM 80.6 °F 84.6 °F 71.6 °F 74% 29.95 in 10.0 mi South 6.9 mph - N/A   Clear
9:35 AM 82.4 °F 87.2 °F 71.6 °F 70% 29.96 in 10.0 mi South 8.1 mph - N/A   Scattered Clouds
9:55 AM 84.2 °F 89.6 °F 71.6 °F 66% 29.96 in 10.0 mi SSW 9.2 mph - N/A   Mostly Cloudy
10:15 AM 84.2 °F 89.6 °F 71.6 °F 66% 29.96 in 10.0 mi South 6.9 mph - N/A   Mostly Cloudy
10:35 AM 84.2 °F 89.6 °F 71.6 °F 66% 29.96 in 10.0 mi South 11.5 mph - N/A   Scattered Clouds
10:55 AM 84.2 °F 89.6 °F 71.6 °F 66% 29.96 in 10.0 mi SSW 10.4 mph - N/A   Scattered Clouds
11:15 AM 84.2 °F 89.6 °F 71.6 °F 66% 29.96 in 10.0 mi South 12.7 mph - N/A   Mostly Cloudy
11:35 AM 84.2 °F 89.6 °F 71.6 °F 66% 29.95 in 10.0 mi South 13.8 mph - N/A   Overcast
11:55 AM 84.2 °F 90.9 °F 73.4 °F 70% 29.95 in 10.0 mi South 13.8 mph - N/A   Scattered Clouds
12:15 PM 87.8 °F 95.6 °F 73.4 °F 62% 29.93 in 10.0 mi South 13.8 mph - N/A   Clear
12:35 PM 87.8 °F 95.6 °F 73.4 °F 62% 29.92 in 10.0 mi SSW 10.4 mph - N/A   Partly Cloudy
12:55 PM 87.8 °F 95.6 °F 73.4 °F 62% 29.91 in 10.0 mi SW 9.2 mph - N/A Thunderstorm Mostly Cloudy
1:15 PM 78.8 °F - 71.6 °F 78% 29.91 in 10.0 mi WNW 6.9 mph - 0.06 in Thunderstorm Thunderstorm
1:36 PM 78.8 °F - 71.6 °F 78% 29.92 in 10.0 mi SSW 6.9 mph - 0.06 in Thunderstorm Thunderstorm
1:55 PM 78.8 °F - 71.6 °F 78% 29.92 in 10.0 mi South 15.0 mph - 0.06 in Thunderstorm Scattered Clouds
2:15 PM 78.8 °F - 71.6 °F 78% 29.92 in 10.0 mi SSW 15.0 mph - N/A   Mostly Cloudy
2:35 PM 80.6 °F 84.6 °F 71.6 °F 74% 29.90 in 10.0 mi SSW 10.4 mph - N/A   Partly Cloudy
2:55 PM 80.6 °F 84.6 °F 71.6 °F 74% 29.90 in 10.0 mi SSW 9.2 mph - N/A   Clear
3:15 PM 80.6 °F 83.9 °F 69.8 °F 70% 29.89 in 10.0 mi South 12.7 mph - N/A   Clear
3:35 PM 78.8 °F - 66.2 °F 65% 29.88 in 10.0 mi South 11.5 mph - N/A   Clear
3:55 PM 78.8 °F - 68.0 °F 69% 29.88 in 10.0 mi SSE 10.4 mph - N/A   Clear
4:16 PM 78.8 °F - 68.0 °F 69% 29.87 in 10.0 mi SSE 10.4 mph - N/A   Clear
4:35 PM 78.8 °F - 68.0 °F 69% 29.88 in 10.0 mi South 8.1 mph - N/A   Mostly Cloudy
4:55 PM 80.6 °F 83.2 °F 68.0 °F 65% 29.88 in 10.0 mi South 9.2 mph - N/A   Overcast
5:15 PM 80.6 °F 83.9 °F 69.8 °F 70% 29.88 in 10.0 mi SSW 9.2 mph - N/A   Scattered Clouds
5:35 PM 80.6 °F 83.9 °F 69.8 °F 70% 29.88 in 10.0 mi South 10.4 mph - N/A   Partly Cloudy
5:55 PM 80.6 °F 83.9 °F 69.8 °F 70% 29.87 in 10.0 mi South 9.2 mph - N/A   Clear
6:15 PM 80.6 °F 83.9 °F 69.8 °F 70% 29.87 in 10.0 mi South 8.1 mph - N/A   Clear
6:35 PM 80.6 °F 84.6 °F 71.6 °F 74% 29.87 in 10.0 mi South 9.2 mph - N/A   Clear
6:55 PM 80.6 °F 84.6 °F 71.6 °F 74% 29.86 in 10.0 mi South 9.2 mph - N/A   Clear
7:15 PM 82.4 °F 87.2 °F 71.6 °F 70% 29.86 in 10.0 mi South 9.2 mph - N/A   Scattered Clouds
7:35 PM 80.6 °F 84.6 °F 71.6 °F 74% 29.86 in 10.0 mi South 8.1 mph - N/A   Scattered Clouds
7:55 PM 78.8 °F - 69.8 °F 74% 29.86 in 10.0 mi SSW 11.5 mph - N/A Thunderstorm Partly Cloudy
8:16 PM 78.8 °F - 68.0 °F 69% 29.86 in 10.0 mi SSW 6.9 mph - N/A   Clear
8:35 PM 75.2 °F - 68.0 °F 78% 29.88 in 10.0 mi Calm Calm - N/A   Clear
8:55 PM 75.2 °F - 68.0 °F 78% 29.88 in 10.0 mi East 5.8 mph - N/A   Clear
9:16 PM 75.2 °F - 68.0 °F 78% 29.89 in 10.0 mi NE 4.6 mph - N/A   Mostly Cloudy
9:35 PM 75.2 °F - 69.8 °F 83% 29.90 in 10.0 mi ENE 6.9 mph - N/A   Overcast
9:55 PM 75.2 °F - 69.8 °F 83% 29.89 in 10.0 mi Calm Calm - 0.01 in   Overcast
10:15 PM 75.2 °F - 69.8 °F 83% 29.89 in 10.0 mi North - - N/A   Mostly Cloudy
10:36 PM 73.4 °F - 69.8 °F 88% 29.90 in 10.0 mi NNW 3.5 mph - N/A   Mostly Cloudy
10:55 PM 73.4 °F - 69.8 °F 88% 29.90 in 10.0 mi North 4.6 mph - N/A   Overcast
11:15 PM 75.2 °F - 69.8 °F 83% 29.90 in 10.0 mi Calm Calm - N/A   Mostly Cloudy
11:35 PM 73.4 °F - 69.8 °F 88% 29.90 in 10.0 mi West 3.5 mph - N/A   Mostly Cloudy
11:55 PM 73.4 °F - 69.8 °F 88% 29.90 in 9.0 mi WSW 4.6 mph - N/A   Partly Cloudy